• In Romania
  • List of Countries
  • For 7 days
  • Water Temperature
  • Satellite Maps
  • Weather Map
  • Weather Widgets
  • user-avatar
    Login

    Hourly Weather Shusha

    Today, 28 May, Sunday

    Time Temperature Precipitation Wind Pressure Humidity
    00:00 +11°C° 0.2 mm 1 mps 657 mmHg 87%
    01:00 +11°C° 0 mm 1 mps 657 mmHg 87%
    02:00 +11°C° 0 mm 1 mps 657 mmHg 87%
    03:00 +11°C° 0 mm 1 mps 657 mmHg 81%
    04:00 +12°C° 0 mm 1 mps 658 mmHg 77%
    05:00 +13°C° 0 mm 1 mps 658 mmHg 73%
    06:00 +14°C° 0 mm 1 mps 659 mmHg 69%
    07:00 +16°C° 0 mm 1 mps 659 mmHg 60%
    08:00 +18°C° 0 mm 2 mps 660 mmHg 50%
    09:00 +20°C° 0 mm 2 mps 660 mmHg 41%
    10:00 +23°C° 0 mm 2 mps 660 mmHg 38%
    11:00 +24°C° 0 mm 3 mps 660 mmHg 35%
    12:00 +25°C° 0 mm 3 mps 660 mmHg 32%
    13:00 +25°C° 0 mm 3 mps 660 mmHg 32%
    14:00 +25°C° 0 mm 3 mps 660 mmHg 31%
    15:00 +26°C° 0 mm 3 mps 659 mmHg 31%
    16:00 +25°C° 0 mm 3 mps 659 mmHg 36%
    17:00 +23°C° 0 mm 2 mps 659 mmHg 41%
    18:00 +21°C° 0 mm 2 mps 659 mmHg 46%
    19:00 +19°C° 0.1 mm 2 mps 659 mmHg 54%
    20:00 +16°C° 0.1 mm 2 mps 659 mmHg 61%
    21:00 +13°C° 0.1 mm 2 mps 659 mmHg 69%
    22:00 +13°C° 0.1 mm 2 mps 659 mmHg 71%
    23:00 +12°C° 0.1 mm 2 mps 660 mmHg 72%

    Tomorrow, 29 May, Monday

    Time Temperature Precipitation Wind Pressure Humidity
    00:00 +12°C° 0.1 mm 2 mps 660 mmHg 73%
    01:00 +12°C° 0 mm 1 mps 660 mmHg 74%
    02:00 +11°C° 0 mm 1 mps 660 mmHg 74%
    03:00 +11°C° 0 mm 1 mps 660 mmHg 74%
    04:00 +12°C° 0 mm 1 mps 661 mmHg 71%
    05:00 +13°C° 0 mm 1 mps 661 mmHg 67%
    06:00 +14°C° 0 mm 1 mps 662 mmHg 64%
    07:00 +16°C° 0 mm 1 mps 663 mmHg 59%
    08:00 +18°C° 0 mm 2 mps 663 mmHg 54%
    09:00 +20°C° 0 mm 2 mps 664 mmHg 49%
    10:00 +21°C° 0 mm 2 mps 664 mmHg 47%
    11:00 +22°C° 0 mm 3 mps 664 mmHg 45%
    12:00 +24°C° 0 mm 3 mps 664 mmHg 43%
    13:00 +23°C° 0.3 mm 4 mps 663 mmHg 44%
    14:00 +23°C° 0.3 mm 4 mps 663 mmHg 44%
    15:00 +23°C° 0.3 mm 4 mps 663 mmHg 45%
    16:00 +22°C° 0.1 mm 4 mps 663 mmHg 48%
    17:00 +20°C° 0.1 mm 4 mps 662 mmHg 52%
    18:00 +19°C° 0.1 mm 4 mps 662 mmHg 56%
    19:00 +17°C° 0 mm 3 mps 662 mmHg 64%
    20:00 +15°C° 0 mm 2 mps 662 mmHg 71%
    21:00 +12°C° 0 mm 2 mps 662 mmHg 78%
    22:00 +12°C° 0 mm 1 mps 662 mmHg 81%
    23:00 +11°C° 0 mm 1 mps 661 mmHg 83%

    Day after tomorrow, 30 May, Tuesday

    Time Temperature Precipitation Wind Pressure Humidity
    00:00 +10°C° 0 mm 1 mps 661 mmHg 86%
    01:00 +10°C° 0 mm 1 mps 661 mmHg 87%
    02:00 +9°C° 0 mm 1 mps 661 mmHg 88%
    03:00 +9°C° 0 mm 1 mps 660 mmHg 90%
    04:00 +10°C° 0 mm 1 mps 661 mmHg 85%
    05:00 +12°C° 0 mm 1 mps 661 mmHg 80%
    06:00 +13°C° 0 mm 1 mps 661 mmHg 76%
    07:00 +15°C° 0 mm 1 mps 662 mmHg 67%
    08:00 +18°C° 0 mm 1 mps 662 mmHg 58%
    09:00 +19°C° 0 mm 2 mps 662 mmHg 50%
    10:00 +21°C° 0 mm 2 mps 662 mmHg 46%
    11:00 +23°C° 0 mm 2 mps 662 mmHg 42%
    12:00 +24°C° 0 mm 3 mps 662 mmHg 39%
    13:00 +25°C° 0 mm 3 mps 662 mmHg 38%
    14:00 +25°C° 0 mm 3 mps 661 mmHg 38%
    15:00 +26°C° 0 mm 3 mps 661 mmHg 37%
    16:00 +25°C° 0 mm 2 mps 661 mmHg 42%
    17:00 +24°C° 0 mm 2 mps 660 mmHg 46%
    18:00 +23°C° 0 mm 1 mps 660 mmHg 50%
    19:00 +20°C° 0 mm 1 mps 660 mmHg 58%
    20:00 +18°C° 0 mm 1 mps 659 mmHg 65%
    21:00 +14°C° 0 mm 1 mps 659 mmHg 73%
    22:00 +14°C° 0 mm 1 mps 659 mmHg 71%
    23:00 +14°C° 0 mm 2 mps 659 mmHg 68%

    31 May, Wednesday

    Time Temperature Precipitation Wind Pressure Humidity
    00:00 +14°C° 0 mm 2 mps 659 mmHg 66%
    01:00 +14°C° 0 mm 2 mps 659 mmHg 66%
    02:00 +13°C° 0 mm 2 mps 659 mmHg 65%
    03:00 +13°C° 0 mm 2 mps 659 mmHg 65%
    04:00 +14°C° 0 mm 2 mps 659 mmHg 61%
    05:00 +15°C° 0 mm 2 mps 660 mmHg 58%
    06:00 +18°C° 0 mm 1 mps 660 mmHg 55%
    07:00 +19°C° 0 mm 2 mps 661 mmHg 48%
    08:00 +21°C° 0 mm 2 mps 661 mmHg 42%
    09:00 +25°C° 0 mm 2 mps 662 mmHg 36%
    10:00 +26°C° 0 mm 2 mps 661 mmHg 34%
    11:00 +26°C° 0 mm 3 mps 661 mmHg 33%
    12:00 +27°C° 0 mm 3 mps 661 mmHg 31%
    13:00 +27°C° 0 mm 3 mps 660 mmHg 32%
    14:00 +27°C° 0 mm 4 mps 660 mmHg 33%
    15:00 +28°C° 0 mm 4 mps 659 mmHg 34%
    16:00 +26°C° 0.1 mm 4 mps 659 mmHg 39%
    17:00 +25°C° 0.1 mm 3 mps 659 mmHg 44%
    18:00 +22°C° 0.1 mm 3 mps 658 mmHg 49%
    19:00 +20°C° 0.1 mm 3 mps 658 mmHg 57%
    20:00 +17°C° 0.1 mm 2 mps 657 mmHg 65%
    21:00 +14°C° 0.1 mm 2 mps 657 mmHg 73%
    22:00 +14°C° 0.1 mm 1 mps 657 mmHg 74%
    23:00 +13°C° 0.1 mm 1 mps 657 mmHg 76%

    1 June, Thursday

    Time Temperature Precipitation Wind Pressure Humidity
    00:00 +13°C° 0.1 mm 1 mps 657 mmHg 78%
    01:00 +12°C° 0.1 mm 1 mps 656 mmHg 77%
    02:00 +12°C° 0.1 mm 1 mps 656 mmHg 76%
    03:00 +12°C° 0.1 mm 1 mps 656 mmHg 76%
    04:00 +13°C° 0 mm 1 mps 657 mmHg 71%
    05:00 +14°C° 0 mm 1 mps 657 mmHg 67%
    06:00 +16°C° 0 mm 1 mps 658 mmHg 62%
    07:00 +18°C° 0 mm 1 mps 658 mmHg 55%
    08:00 +20°C° 0 mm 1 mps 658 mmHg 47%
    09:00 +21°C° 0 mm 2 mps 659 mmHg 40%
    10:00 +23°C° 0 mm 2 mps 658 mmHg 37%
    11:00 +24°C° 0 mm 3 mps 658 mmHg 35%
    12:00 +25°C° 0 mm 3 mps 658 mmHg 32%
    13:00 +26°C° 0.2 mm 3 mps 658 mmHg 33%
    14:00 +26°C° 0.2 mm 3 mps 657 mmHg 33%
    15:00 +26°C° 0.2 mm 3 mps 657 mmHg 33%
    16:00 +25°C° 0.2 mm 3 mps 657 mmHg 38%
    17:00 +24°C° 0.2 mm 2 mps 657 mmHg 43%
    18:00 +23°C° 0.2 mm 2 mps 657 mmHg 48%
    19:00 +21°C° 0.5 mm 1 mps 656 mmHg 56%
    20:00 +18°C° 0.5 mm 1 mps 656 mmHg 64%
    21:00 +14°C° 0.5 mm 1 mps 656 mmHg 72%
    22:00 +14°C° 0.4 mm 1 mps 656 mmHg 72%
    23:00 +14°C° 0.4 mm 1 mps 656 mmHg 71%

    2 June, Friday

    Time Temperature Precipitation Wind Pressure Humidity
    00:00 +14°C° 0.4 mm 1 mps 656 mmHg 71%
    01:00 +13°C° 0.2 mm 1 mps 656 mmHg 73%
    02:00 +12°C° 0.2 mm 1 mps 656 mmHg 75%
    03:00 +11°C° 0.2 mm 1 mps 656 mmHg 77%
    04:00 +13°C° 0.1 mm 1 mps 656 mmHg 73%
    05:00 +14°C° 0.1 mm 1 mps 657 mmHg 68%
    06:00 +15°C° 0.1 mm 0 mps 658 mmHg 64%
    07:00 +19°C° 0 mm 1 mps 658 mmHg 57%
    08:00 +20°C° 0 mm 1 mps 659 mmHg 50%
    09:00 +21°C° 0 mm 2 mps 659 mmHg 43%
    10:00 +23°C° 0.2 mm 2 mps 659 mmHg 41%
    11:00 +24°C° 0.2 mm 3 mps 659 mmHg 40%
    12:00 +25°C° 0.2 mm 3 mps 659 mmHg 38%
    13:00 +25°C° 0.5 mm 3 mps 659 mmHg 38%
    14:00 +25°C° 0.5 mm 2 mps 659 mmHg 39%
    15:00 +25°C° 0.5 mm 2 mps 658 mmHg 39%
    16:00 +24°C° 0.3 mm 2 mps 659 mmHg 42%
    17:00 +23°C° 0.3 mm 2 mps 659 mmHg 45%
    18:00 +23°C° 0.3 mm 2 mps 659 mmHg 48%
    19:00 +19°C° 0.1 mm 2 mps 659 mmHg 54%
    20:00 +17°C° 0.1 mm 2 mps 658 mmHg 61%
    21:00 +14°C° 0.1 mm 2 mps 658 mmHg 68%
    22:00 +14°C° 0 mm 2 mps 658 mmHg 69%
    23:00 +14°C° 0 mm 2 mps 658 mmHg 70%
    Show more